Location: Fort Worth, Tx
(32.7431°N, 97.3695°W)
Time: 05:05:43
(UTC-05:00)

Altair - Pass Details

Date: 07 October 2023
Orbit: 1501 x 1682 km, 47.2° (Epoch: 06 December)

Event Time Altitude Azimuth Distance (km) Brightness Sun altitude
Rises 12:15:07 0° 284° (WNW) 4,930 9.8 41.9°
Reaches altitude 10° 12:22:44 10° 247° (WSW) 3,936 9.6 43.0°
Maximum altitude 12:24:03 10° 240° (WSW) 3,907 9.7 43.2°
Drops below altitude 10° 12:25:22 10° 232° (SW) 3,929 9.7 43.4°
Sets 12:33:01 0° 195° (SSW) 4,881 10.5 44.4°
